Regional Weather Roundup
Issued by NWS

Home | Current Version | Previous Version | Graphics & Text | Print | Product List | Glossary On
Versions: 1 2 3 4 5 6 7 8 9 10 11 12 13 14 15 16 17 18 19 20 21 22 23 24 25 26 27 28 29 30 31 32 33 34 35 36 37 38 39 40 41 42 43 44 45 46 47 48 49 50
000
ASUS43 KMPX 310410
RWRMN
WEATHER ROUNDUP FOR MINNESOTA
NATIONAL WEATHER SERVICE TWIN CITIES/CHANHASSEN MN
1100 PM CDT MON MAY 30 2016


NOTE: "FAIR" INDICATES FEW OR NO CLOUDS BELOW 12,000 FEET WITH NO
SIGNIFICANT WEATHER AND/OR OBSTRUCTIONS TO VISIBILITY. N/A MEANS
CURRENT SKY AND/OR WEATHER CONDITIONS ARE NOT AVAILABLE.

MNZ060>063-068>070-310500-
   Twin Cities Metro

CITY           SKY/WX    TMP DP  RH WIND       PRES   REMARKS
TWIN CITIES    LGT RAIN  74  52  46 SE10      29.89S
ST PAUL        CLOUDY    70  54  56 SE8       29.90S
CRYSTAL        PTCLDY    75  49  39 SE10      29.87S
BLAINE         CLOUDY    73  54  49 SE8       29.90S
EDEN PRAIRIE   CLOUDY    75  51  43 SE13      29.88S
SOUTH ST PAUL  PTCLDY    73  53  49 SE7       29.90S
LAKE ELMO      FAIR      72  54  53 SE6       29.92S
$$
MNZ001>005-007-008-013>017-022>024-027-028-310500-
   Northwest Minnesota

CITY           SKY/WX    TMP DP  RH WIND       PRES   REMARKS
BEMIDJI        CLOUDY    63  55  74 E8        29.87F
HALLOCK        LGT RAIN  63  61  94 E3        29.86F
ROSEAU         MOCLDY    64  55  72 E16       29.89F
WARROAD        CLOUDY    63  57  82 E15G23    29.93S
THIEF RVR FALL CLOUDY    61  54  77 W10G23    29.90R
CROOKSTON      RAIN      57  57 100 NE10      29.85F
FOSSTON        CLOUDY    64  52  63 E8        29.83F
DETROIT LAKES  CLOUDY    68  54  60 SE16G24   29.80F
MOORHEAD       CLOUDY    73  54  49 SE18G26   29.71F
PARK RAPIDS    CLOUDY    65  56  72 NE8       29.86F
MAHNOMEN       MOCLDY    68  55  62 SE17      29.78F
$$
MNZ006-009>011-018-025>026-310500-
   North Central Minnesota

CITY           SKY/WX    TMP DP  RH WIND       PRES   REMARKS
BAUDETTE       PTCLDY    62  49  62 E14       29.93R
FLAG ISLAND    CLOUDY    63  48  59 E9        29.94S
INTL FALLS     PTCLDY    60  49  66 E10       29.98R
WASKISH        CLOUDY    64  52  63 E10       29.91S
BIG FORK       PTCLDY    64  48  55 E6        29.94R
LONGVILLE      CLOUDY    57  55  94 CALM      29.90S
GRAND RAPIDS   CLOUDY    63  52  67 CALM      29.95R
CRANE LAKE     CLOUDY    59  48  67 CALM      30.01R
ORR            CLOUDY    61  46  59 CALM      29.96R
COOK           PTCLDY    61  48  63 E6        29.98R
WALKER         MOCLDY    64  54  69 E3        29.88F
$$
MNZ012-019>021-037-310500-
   Northeast Minnesota

CITY           SKY/WX    TMP DP  RH WIND       PRES   REMARKS
DULUTH         LGT RAIN  66  47  50 E14       29.97R
ELY            CLEAR     61  48  63 E8        30.01R
HIBBING        CLOUDY    65  46  50 SE12      29.96R
EVELETH        CLOUDY    63  45  51 E5        29.98S
DULUTH HARBOR  CLOUDY    54  48  82 CALM      29.97R
TWO HARBORS    MOCLDY    64  50  59 NE7       29.99R
SILVER BAY     CLOUDY    54  45  71 NE15G23   30.05R
GRAND MARAIS     N/A     45  40  82 NE14      30.06R
G MARAIS ARPRT CLOUDY    52  43  71 NE12      30.07R
$$
MNZ029>031-032-039>041-046>048-054>057-064-310500-
   West Central Minnesota

CITY           SKY/WX    TMP DP  RH WIND       PRES   REMARKS
FERGUS FALLS   CLOUDY    72  55  56 SE15      29.74S
WHEATON        CLOUDY    75  57  53 SE16      29.76F
MORRIS         PTCLDY    72  57  60 SE15      29.78F
ALEXANDRIA     TSTM      71  53  52 SE20G30   29.85R
ELBOW LAKE     FAIR      73  54  52 SE17G28   29.80R
WADENA         CLOUDY    70  54  56 E10       29.84F
GLENWOOD       DRIZZLE   66  57  72 SE14      29.84F
APPLETON       CLOUDY    75  55  50 SE10      29.76F
ORTONVILLE     CLOUDY    73  55  53 SE10      29.75F
MADISON        CLOUDY    70  54  56 SE10      29.76F
WILLMAR        FAIR      73  57  56 SE14      29.84S
$$
MNZ033>034-036-042>043-049>051-058-059-310500-
   Central Minnesota

CITY           SKY/WX    TMP DP  RH WIND       PRES   REMARKS
ST CLOUD       PTCLDY    73  52  47 E8        29.87S
SAUK CENTRE    RAIN      66  55  66 SE12      29.85S
PAYNESVILLE    CLOUDY    73  51  45 SE9       29.85S
AITKIN         MOCLDY    66  48  52 E8        29.90F
PINE RIVER     CLOUDY    66  55  68 E8        29.91F
BRAINERD       PTCLDY    68  53  58 SE6       29.89F
STAPLES        CLOUDY    68  52  56 E3        29.86S
LONG PRAIRIE   CLOUDY    70  50  49 E10       29.85F
LITTLE FALLS   PTCLDY    70  52  52 E9        29.87F
LITCHFIELD     CLOUDY    73  55  53 SE10      29.86F
BUFFALO        CLOUDY    71  51  49 E6        29.88F
MAPLE LAKE     CLOUDY    74  54  50 E7        29.88F
HUTCHINSON     CLOUDY    72  60  65 SE12      29.87F
$$
MNZ037-044-045-052-053-310500-
   East Central Minnesota

CITY           SKY/WX    TMP DP  RH WIND       PRES   REMARKS
PRINCETON      PTCLDY    72  54  53 E6        29.89F
MORA           CLOUDY    64  52  63 E5        29.93R
CAMBRIDGE      PTCLDY    73  55  53 SE5       29.89S
RUSH CITY      PTCLDY    67  54  61 CALM      29.91S
MOOSE LAKE     PTCLDY    57  54  88 CALM      29.92S
HINCKLEY       MOCLDY    63  59  88 N3        29.93R
CLOQUET        PTCLDY    63  45  51 E5        29.96R
MCGREGOR       CLOUDY    63  52  67 E7        29.93R
$$
MNZ071>073-080-081-089-090-097-098-310500-
   Southwest Minnesota

CITY           SKY/WX    TMP DP  RH WIND       PRES   REMARKS
MONTEVIDEO     PTCLDY    72  59  64 S14G20    29.79F
GRANITE FALLS  CLOUDY    77  58  52 SE17G24   29.80F
CANBY          CLOUDY    72  57  60 SE5       29.77F
MARSHALL       LGT RAIN  75  58  55 SE18G25   29.79F
REDWOOD FALLS  PTCLDY    73  56  54 SE20G26   29.81F
OLIVIA         CLOUDY    72  55  56 SE14G20   29.82F
PIPESTONE      CLOUDY    72  57  60 S20G25    29.82S
WINDOM         MOCLDY    72  57  60 SE17G25   29.85S
WORTHINGTON    TSTM      69  59  70 S18G29    29.86R
JACKSON        PTCLDY    68  55  64 SE16G25   29.89S
TRACY          LGT RAIN  74  59  57 S16G22    29.82S
SLAYTON        LGT RAIN  68  62  79 S10       29.85S
$$
MNZ065>067-074>077-082>085-091>093-310500-
   South Central Minnesota

CITY           SKY/WX    TMP DP  RH WIND       PRES   REMARKS
MANKATO        PTCLDY    72  54  53 S14G20    29.89F
NEW ULM        CLOUDY    70  57  64 S14G21    29.86F
ST JAMES       CLEAR     64  54  68 SE18G25   29.88S
FAIRMONT       MOCLDY    66  50  55 SE20G25   29.90R
GLENCOE        CLOUDY    74  60  60 SE12G17   29.87S
FARIBAULT      CLOUDY    72  57  60 SE10      29.93R
OWATONNA       CLOUDY    68  57  68 S8        29.94R
WASECA         CLOUDY    70  55  60 S16G25    29.94R
ALBERT LEA     CLOUDY    70  57  64 S12       29.95R
$$
MNZ078>079-086>088-094>096-310500-
   Southeast Minnesota

CITY           SKY/WX    TMP DP  RH WIND       PRES   REMARKS
ROCHESTER      CLOUDY    65  58  78 SE8       29.96R
RED WING       MOCLDY    72  55  56 S5        29.92R
STANTON        PTCLDY    71  58  62 S8        29.91S
DODGE CENTER   CLOUDY    66  55  68 CALM      29.96R
WINONA         CLOUDY    73  52  46 CALM      29.95R
AUSTIN         CLOUDY    68  55  64 S13       29.95R
PRESTON        CLOUDY    66  55  68 S10       29.98R
$$
ABBREVIATIONS USED IN REMARKS
   TC - TEMPERATURES IN CELSIUS
  WCI - WIND CHILL INDEX
   HX - HEAT INDEX
  VSB - VISIBILITY
$$



USA.gov is the U.S. government's official web portal to all federal, state and local government web resources and services.